Weather reports worldwide

Advertisment
Montpellier, France (7643): temperature & dewpoint: 19.09.2018 12:00:00 - 25.09.2018 12:00:00 (CEST)Montpellier, France (7643): temperature 5cm: 19.09.2018 12:00:00 - 25.09.2018 12:00:00 (CEST)Montpellier, France (7643): temperature -20cm & temperature -100cm: 19.09.2018 12:00:00 - 25.09.2018 12:00:00 (CEST)Montpellier, France (7643): wind speed & gusts: 19.09.2018 12:00:00 - 25.09.2018 12:00:00 (CEST)Montpellier, France (7643): wind direction: 19.09.2018 12:00:00 - 25.09.2018 12:00:00 (CEST)Montpellier, France (7643): reduced air pressure: 19.09.2018 12:00:00 - 25.09.2018 12:00:00 (CEST)Montpellier, France (7643): visibility: 19.09.2018 12:00:00 - 25.09.2018 12:00:00 (CEST)Montpellier, France (7643): sunshine duration: 19.09.2018 12:00:00 - 25.09.2018 12:00:00 (CEST)Montpellier, France (7643): precipitation: 19.09.2018 12:00:00 - 25.09.2018 12:00:00 (CEST)
Date & Time tt [°C] td [°C] tt 5cm [°C] tt -20cm [°C] tt -100cm [°C] ff [km/h] ff [kn] fx [km/h] fx [kn] dd ppp [hPa] vv [km] sd [min] rr [mm]
25.09.2018 12:00:00 - - - - - - - - - - - - - -
25.09.2018 11:00:00 20,1 3,7 20,9 21,5 23,4 18 10 31 17 NNE 1028,0 60 51 0,0
25.09.2018 10:00:00 18,0 3,1 17,5 21,6 23,4 23 13 32 18 NNE 1027,5 60 31 0,0
25.09.2018 09:00:00 16,6 2,9 14,5 21,6 23,4 14 8 29 16 NNE 1026,8 60 6 0,0
25.09.2018 08:00:00 14,9 2,1 13,9 21,8 23,4 16 9 35 19 NNE 1026,5 60 0 0,0
25.09.2018 07:00:00 15,3 1,8 14,3 22,0 23,4 21 11 37 20 N 1026,1 60 0 0,0
25.09.2018 06:00:00 16,0 1,7 14,7 22,2 23,4 21 11 37 20 N 1026,0 60 0 0,0
25.09.2018 05:00:00 15,4 1,1 13,3 22,4 23,4 18 10 29 16 N 1026,1 60 0 0,0
25.09.2018 04:00:00 15,3 1,4 13,6 22,6 23,4 13 7 21 11 N 1026,0 60 0 0,0
25.09.2018 03:00:00 16,1 1,8 14,5 22,8 23,4 14 8 40 21 N 1026,1 60 0 0,0
25.09.2018 02:00:00 16,0 2,0 14,8 23,0 23,4 22 12 39 21 N 1025,7 60 0 0,0
25.09.2018 01:00:00 16,5 2,5 15,2 23,3 23,4 22 12 36 19 N 1025,5 60 0 0,0
25.09.2018 00:00:00 17,1 3,0 15,3 23,5 23,4 18 10 36 19 N 1025,3 60 0 0,0
24.09.2018 23:00:00 17,7 2,4 16,2 23,9 23,4 19 11 39 21 N 1025,2 60 0 0,0
24.09.2018 22:00:00 19,1 2,0 17,4 24,1 23,4 27 14 45 25 N 1024,7 47 0 0,0
24.09.2018 21:00:00 19,1 2,9 17,5 24,4 23,4 20 11 54 29 N 1024,5 60 0 0,0
24.09.2018 20:00:00 19,7 3,0 18,6 24,7 23,5 33 18 55 30 NNE 1023,3 60 17 0,0
24.09.2018 19:00:00 20,6 3,3 20,8 24,9 23,4 35 19 58 31 NNE 1022,2 60 60 0,0
24.09.2018 18:00:00 22,0 3,6 23,6 25,0 23,4 31 17 58 31 NNE 1021,9 49 60 0,0
24.09.2018 17:00:00 23,0 2,4 25,2 25,0 23,4 36 19 54 29 NNE 1021,4 44 60 0,0
24.09.2018 16:00:00 24,0 2,2 27,9 24,9 23,4 37 20 54 29 NNE 1021,5 48 60 0,0
24.09.2018 15:00:00 24,3 2,4 28,8 24,7 23,4 35 19 48 26 NNE 1021,6 58 60 0,0
24.09.2018 14:00:00 24,2 2,9 29,9 24,4 23,4 31 17 44 24 NNE 1022,1 59 60 0,0
24.09.2018 13:00:00 24,2 5,0 28,9 24,1 23,4 26 14 39 21 NNE 1023,0 60 60 0,0
24.09.2018 12:00:00 22,7 6,0 27,7 23,9 23,4 24 13 40 22 NNE 1023,5 60 60 0,0
24.09.2018 11:00:00 22,2 7,6 25,2 23,9 23,4 24 13 45 24 NNE 1023,4 60 60 0,0
24.09.2018 10:00:00 20,3 7,6 22,6 24,0 23,4 31 17 47 25 N 1022,8 60 60 0,0
24.09.2018 09:00:00 19,2 9,1 18,7 24,3 23,4 27 14 40 21 NNE 1022,5 60 60 0,0
24.09.2018 08:00:00 17,8 9,2 17,2 24,6 23,4 27 15 41 22 N 1021,8 51 6 0,0
24.09.2018 07:00:00 18,3 10,4 17,9 24,8 23,4 23 12 34 19 NNE 1021,3 60 0 0,0
24.09.2018 06:00:00 19,1 11,4 18,9 25,1 23,4 29 16 41 22 NNE 1020,8 60 0 0,0
24.09.2018 05:00:00 20,5 13,0 20,1 25,3 23,4 22 12 42 23 NE 1020,3 60 0 0,0
24.09.2018 04:00:00 24,4 16,4 23,7 25,4 23,4 25 14 42 23 WNW 1019,5 60 0 0,0
24.09.2018 03:00:00 25,0 15,9 23,7 25,6 23,4 27 15 42 23 WNW 1019,5 60 0 0,0
24.09.2018 02:00:00 25,2 15,2 23,4 25,7 23,4 29 16 43 23 W 1019,3 60 0 0,0
24.09.2018 01:00:00 26,3 15,0 24,9 25,9 23,5 23 13 44 24 WNW 1019,3 60 0 0,0
24.09.2018 00:00:00 27,0 15,1 26,0 26,1 23,4 31 17 52 28 WNW 1019,3 60 0 0,0
23.09.2018 23:00:00 27,8 14,1 26,5 26,3 23,4 28 15 44 24 NW 1019,1 60 0 0,0
23.09.2018 22:00:00 28,9 12,7 27,3 26,5 23,4 23 12 42 23 WNW 1018,9 60 0 0,0
23.09.2018 21:00:00 30,0 12,9 28,7 26,6 23,4 30 16 46 25 WNW 1018,5 60 0 0,0
23.09.2018 20:00:00 30,9 14,1 29,5 26,7 23,4 30 16 50 27 WNW 1017,7 60 18 0,0
23.09.2018 19:00:00 32,7 14,3 32,5 26,7 23,5 31 17 47 26 WNW 1016,9 54 60 0,0
23.09.2018 18:00:00 34,1 14,6 36,0 26,5 23,4 29 15 44 24 WNW 1016,4 46 60 0,0
23.09.2018 17:00:00 34,4 13,8 38,1 26,1 23,4 30 16 41 22 WNW 1016,3 60 60 0,0
23.09.2018 16:00:00 35,3 15,1 36,8 25,7 23,5 13 7 25 13 SSE 1016,5 60 60 0,0
23.09.2018 15:00:00 30,8 17,8 35,7 25,2 23,5 14 8 21 11 ESE 1017,6 60 60 0,0
23.09.2018 14:00:00 28,7 18,8 35,5 24,6 23,4 16 9 23 12 SE 1018,8 60 60 0,0
23.09.2018 13:00:00 29,6 15,0 36,2 24,1 23,5 16 9 22 12 SSE 1019,6 60 60 0,0
23.09.2018 12:00:00 30,5 14,2 35,9 23,5 23,4 6 4 16 9 S 1020,2 60 60 0,0
23.09.2018 11:00:00 28,0 13,5 32,3 23,2 23,4 11 6 17 9 W 1020,8 60 58 0,0
23.09.2018 10:00:00 25,9 13,1 31,2 23,1 23,5 11 6 18 10 WNW 1020,9 60 60 0,0
23.09.2018 09:00:00 24,1 13,9 20,9 23,1 23,4 2 1 10 5 WNW 1020,5 58 60 0,0
23.09.2018 08:00:00 21,2 12,1 16,3 23,3 23,5 2 1 13 7 W 1020,3 59 7 0,0
23.09.2018 07:00:00 21,2 11,5 15,5 23,4 23,5 8 4 13 7 WNW 1020,4 60 0 0,0
23.09.2018 06:00:00 21,5 10,9 16,6 23,5 23,4 5 3 12 6 W 1020,8 60 0 0,0
23.09.2018 05:00:00 20,4 8,7 17,2 23,7 23,4 4 2 22 12 WSW 1020,9 60 0 0,0
23.09.2018 04:00:00 23,0 7,5 18,3 23,9 23,5 12 7 24 13 WNW 1020,8 60 0 0,0
23.09.2018 03:00:00 23,0 5,9 20,6 24,0 23,5 11 6 25 13 WNW 1021,2 60 0 0,0
23.09.2018 02:00:00 23,5 4,9 19,7 24,2 23,5 11 6 20 11 NW 1021,5 60 0 0,0
23.09.2018 01:00:00 22,7 4,7 16,9 24,5 23,5 14 8 23 12 NW 1021,5 60 0 0,0
23.09.2018 00:00:00 23,8 3,7 16,0 24,8 23,5 5 3 10 6 W 1021,6 60 0 0,0
22.09.2018 23:00:00 22,4 8,1 14,7 25,1 23,5 9 5 11 6 NW 1021,3 60 0 0,0
22.09.2018 22:00:00 20,5 10,9 14,8 25,4 23,5 7 4 17 9 NE 1021,0 60 0 0,0
22.09.2018 21:00:00 20,0 12,0 14,9 25,7 23,5 4 2 13 7 NNW 1020,4 60 0 0,0
22.09.2018 20:00:00 23,4 14,7 17,1 25,8 23,4 5 3 8 4 WNW 1019,5 60 18 0,0
22.09.2018 19:00:00 25,1 15,4 24,8 25,8 23,5 4 2 16 9 SW 1019,0 60 53 0,0
22.09.2018 18:00:00 25,4 14,2 29,0 25,7 23,5 12 7 20 11 S 1019,0 60 60 0,0
22.09.2018 17:00:00 26,1 10,3 31,0 25,5 23,4 11 6 20 11 S 1019,3 60 60 0,0
22.09.2018 16:00:00 26,3 10,4 32,3 25,1 23,4 11 6 19 11 S 1019,7 60 60 0,0
22.09.2018 15:00:00 26,0 11,4 32,4 24,8 23,5 13 7 18 10 S 1020,1 60 60 0,0
22.09.2018 14:00:00 26,5 7,0 31,3 24,3 23,5 9 5 17 9 SE 1020,9 60 50 0,0
22.09.2018 13:00:00 24,4 7,1 28,2 23,9 23,4 8 4 22 12 NW 1021,4 60 48 0,0
22.09.2018 12:00:00 22,3 8,4 27,8 23,6 23,4 11 6 26 14 NNW 1022,0 60 47 0,0
22.09.2018 11:00:00 21,6 8,5 27,7 23,5 23,5 19 10 27 15 NNW 1022,5 60 60 0,0
22.09.2018 10:00:00 19,7 8,4 24,0 23,5 23,4 14 8 24 13 N 1022,3 60 60 0,0
22.09.2018 09:00:00 18,2 8,7 16,4 23,8 23,5 16 8 24 13 N 1022,4 60 60 0,0
22.09.2018 08:00:00 15,9 9,6 13,0 24,0 23,5 11 6 22 12 N 1022,1 60 4 0,0
22.09.2018 07:00:00 15,6 9,7 13,7 24,3 23,5 10 5 19 11 N 1021,7 60 0 0,0
22.09.2018 06:00:00 16,3 11,4 13,6 24,6 23,5 8 4 14 7 NNW 1021,2 60 0 0,0
22.09.2018 05:00:00 17,8 11,8 16,1 24,9 23,5 6 4 24 13 NNE 1020,9 60 0 0,0
22.09.2018 04:00:00 19,3 11,6 17,6 25,1 23,4 14 7 23 12 NE 1020,4 60 0 0,0
22.09.2018 03:00:00 22,6 11,3 20,8 25,2 23,4 18 10 29 16 W 1020,1 60 0 0,0
22.09.2018 02:00:00 22,9 13,9 21,6 25,4 23,4 18 10 24 13 WNW 1019,9 60 0 0,0
22.09.2018 01:00:00 24,4 14,2 23,1 25,6 23,4 17 9 32 18 WNW 1020,2 60 0 0,0
22.09.2018 00:00:00 25,0 14,5 23,7 25,8 23,5 10 6 36 19 WNW 1020,1 60 0 0,0
21.09.2018 23:00:00 25,9 13,7 23,6 26,0 23,4 16 8 33 18 NW 1019,4 60 0 0,0
21.09.2018 22:00:00 26,3 13,1 25,0 26,2 23,4 15 8 31 17 NW 1018,8 60 0 0,0
21.09.2018 21:00:00 27,2 12,4 25,1 26,4 23,4 23 12 35 19 NW 1018,2 60 0 0,0
21.09.2018 20:00:00 27,6 12,8 26,0 26,5 23,4 18 10 46 25 WNW 1017,2 60 5 0,0
21.09.2018 19:00:00 29,6 11,6 29,2 26,6 23,5 29 16 44 24 WNW 1016,3 55 19 0,0
21.09.2018 18:00:00 31,2 12,1 31,1 26,5 23,4 27 15 41 22 WNW 1015,4 59 6 0,0
21.09.2018 17:00:00 31,6 12,9 32,5 26,3 23,4 23 12 41 22 WNW 1015,1 49 24 0,0
21.09.2018 16:00:00 32,1 15,1 32,8 26,0 23,4 15 8 29 16 SSW 1015,1 19 60 0,0
21.09.2018 15:00:00 26,7 18,3 31,6 25,7 23,4 17 9 27 14 S 1016,0 19 52 0,0
21.09.2018 14:00:00 27,3 18,6 32,5 25,2 23,4 17 9 24 13 SSW 1016,6 19 56 0,0
21.09.2018 13:00:00 27,5 18,5 33,5 24,7 23,4 12 7 18 10 S 1016,9 19 60 0,0
21.09.2018 12:00:00 26,0 19,2 33,1 24,4 23,4 13 7 19 10 S 1017,6 18 60 0,0
21.09.2018 11:00:00 24,2 19,1 24,3 24,1 23,4 6 3 18 10 SSW 1017,8 16 45 0,0
21.09.2018 10:00:00 22,0 18,6 24,0 24,1 23,5 13 7 18 10 W 1017,7 15 40 0,0
21.09.2018 09:00:00 20,6 18,5 19,9 24,1 23,5 8 5 16 8 NNW 1017,2 9 44 0,0
21.09.2018 08:00:00 19,6 18,6 19,8 24,1 23,5 11 6 16 9 NNW 1016,7 2,6 0 0,0
21.09.2018 07:00:00 19,9 18,9 19,3 24,2 23,4 10 5 16 8 N 1016,2 4,2 0 0,0
21.09.2018 06:00:00 19,9 18,7 19,5 24,3 23,4 8 4 13 7 N 1015,9 3,6 0 0,0
21.09.2018 05:00:00 19,9 18,6 18,1 24,4 23,4 9 5 12 6 NNE 1016,1 7 0 0,0
21.09.2018 04:00:00 18,6 17,4 16,4 24,7 23,4 9 5 15 8 NNE 1016,4 8 0 0,0
21.09.2018 03:00:00 18,3 16,5 16,6 24,9 23,5 8 5 11 6 NNE 1016,3 11 0 0,0
21.09.2018 02:00:00 19,0 16,8 17,5 25,1 23,4 7 4 16 9 N 1016,8 12 0 0,0
21.09.2018 01:00:00 22,5 19,9 17,6 25,3 23,4 14 7 16 9 SSE 1016,9 19 0 0,0
21.09.2018 00:00:00 22,2 19,4 17,9 25,6 23,4 9 5 12 6 SSE 1017,0 18 0 0,0
20.09.2018 23:00:00 22,4 19,4 15,7 25,9 23,5 8 4 11 6 SSE 1017,0 20 0 0,0
20.09.2018 22:00:00 21,8 17,8 16,8 26,2 23,4 6 4 8 5 SSE 1016,9 36 0 0,0
20.09.2018 21:00:00 23,9 17,6 19,3 26,5 23,4 5 3 11 6 SW 1016,4 38 0 0,0
20.09.2018 20:00:00 24,9 17,4 23,0 26,6 23,4 9 5 16 9 SW 1016,0 38 24 0,0
20.09.2018 19:00:00 27,2 16,2 27,1 26,7 23,4 12 7 27 14 SSW 1016,0 56 60 0,0
20.09.2018 18:00:00 28,4 16,0 30,7 26,6 23,4 16 9 27 15 SSW 1016,0 60 60 0,0
20.09.2018 17:00:00 28,5 15,1 32,2 26,4 23,4 21 11 29 15 SW 1016,3 60 60 0,0
20.09.2018 16:00:00 29,7 15,4 34,7 26,0 23,4 16 9 25 13 SSW 1016,6 20 60 0,0
20.09.2018 15:00:00 29,8 15,9 35,3 25,5 23,4 17 9 23 12 SSW 1017,1 20 60 0,0
20.09.2018 14:00:00 28,1 17,0 35,3 24,9 23,4 13 7 18 10 SSW 1017,8 43 60 0,0
20.09.2018 13:00:00 27,9 16,5 35,9 24,4 23,4 11 6 17 9 S 1018,4 19 60 0,0
20.09.2018 12:00:00 27,5 16,8 34,2 23,9 23,4 8 5 11 6 SSE 1019,0 18 60 0,0
20.09.2018 11:00:00 26,0 17,1 32,7 23,6 23,4 7 4 14 8 SE 1019,4 20 60 0,0
20.09.2018 10:00:00 24,8 16,0 28,7 23,5 23,4 6 3 10 5 N 1019,3 50 60 0,0
20.09.2018 09:00:00 22,0 16,3 18,8 23,6 23,5 6 3 13 7 N 1019,2 37 60 0,0
20.09.2018 08:00:00 18,3 15,0 15,1 23,8 23,5 5 3 10 5 NW 1019,0 26 10 0,0
20.09.2018 07:00:00 19,3 15,4 15,7 24,0 23,4 9 5 14 7 NNW 1018,7 27 0 0,0
20.09.2018 06:00:00 17,8 15,2 15,6 24,2 23,4 8 4 10 5 N 1018,7 20 0 0,0
20.09.2018 05:00:00 17,9 15,5 14,4 24,4 23,5 8 5 11 6 NNE 1018,8 18 0 0,0
20.09.2018 04:00:00 17,9 15,0 14,9 24,7 23,4 6 4 11 6 NE 1018,8 20 0 0,0
20.09.2018 03:00:00 19,3 16,0 15,3 24,9 23,4 8 4 11 6 N 1019,0 20 0 0,0
20.09.2018 02:00:00 19,4 15,5 16,3 25,2 23,4 4 2 7 4 WNW 1019,2 19 0 0,0
20.09.2018 01:00:00 20,4 16,6 16,5 25,5 23,4 0 0 7 4 N 1019,5 20 0 0,0
20.09.2018 00:00:00 21,6 16,3 17,1 25,8 23,4 6 3 9 5 W 1019,6 28 0 0,0
19.09.2018 23:00:00 23,1 16,9 20,4 26,0 23,4 8 4 10 5 W 1019,5 28 0 0,0
19.09.2018 22:00:00 23,9 17,2 21,8 26,3 23,4 9 5 16 8 W 1019,5 29 0 0,0
19.09.2018 21:00:00 24,1 18,7 22,5 26,5 23,5 9 5 20 11 WSW 1019,2 27 0 0,0
19.09.2018 20:00:00 25,0 18,7 23,7 26,6 23,4 13 7 22 12 WSW 1018,8 35 26 0,0
19.09.2018 19:00:00 26,0 18,4 26,0 26,7 23,4 17 9 24 13 SW 1018,7 41 60 0,0
19.09.2018 18:00:00 27,1 18,1 29,6 26,6 23,4 19 10 25 13 SW 1018,6 49 60 0,0
19.09.2018 17:00:00 27,5 18,2 31,6 26,4 23,5 16 9 23 12 SSW 1018,8 45 60 0,0
19.09.2018 16:00:00 28,4 18,5 33,8 26,0 23,4 14 8 20 11 SSW 1019,2 42 60 0,0
19.09.2018 15:00:00 27,7 20,3 33,8 25,5 23,4 13 7 20 11 SSW 1019,6 44 60 0,0
19.09.2018 14:00:00 27,1 19,7 34,7 25,0 23,4 13 7 19 10 SSW 1020,2 20 60 0,0
19.09.2018 13:00:00 26,3 18,7 34,4 24,5 23,4 10 6 15 8 S 1020,7 20 60 0,0
19.09.2018 12:00:00 25,7 18,1 32,8 24,1 23,5 8 5 11 6 SSE 1020,9 43 60 0,0

tt = temperature
td = dewpoint
tt 5cm = temperature 5cm
tt -20cm = temperature -20cm
tt -100cm = temperature -100cm
ff = wind speed
fx = gusts
dd = wind direction
ppp = reduced air pressure
vv = visibility
sd = sunshine duration
rr = precipitation

Next stations